GW3825 Weather Reports


time (UTC)temp
C
wind
direction
speed
KPH
gust
KPH
rain 1hr
cm
rain 24hr
cm
rain mn
cm
humidity
%
barometer
mb
20260906140932 21 75 11.3 12.9 0.00 0.00 0.00 99 1020.6
20260906140426 21 51 9.7 11.3 0.00 0.00 0.00 99 1020.3
20260906135924 21 81 6.4 11.3 0.00 0.00 0.00 99 1020.6
20260906135424 21 66 4.8 6.4 0.00 0.00 0.00 99 1020.5
20260906134919 21 53 6.4 11.3 0.00 0.00 0.00 99 1020.4
20260906134414 21 57 9.7 12.9 0.00 0.00 0.00 98 1020.5
20260906133904 21 49 4.8 9.7 0.00 0.00 0.00 98 1020.7
20260906133400 21 71 11.3 12.9 0.00 0.00 0.00 98 1020.4
20260906132855 21 53 9.7 11.3 0.00 0.00 0.00 98 1020.5
20260906132350 21 64 8.0 11.3 0.00 0.00 0.00 98 1020.7
20260906131846 21 63 9.7 16.1 0.00 0.00 0.00 98 1020.4
20260906131341 21 80 12.9 14.5 0.00 0.00 0.00 98 1020.3
20260906130837 21 54 11.3 14.5 0.00 0.00 0.00 98 1020.4
20260906130337 21 83 8.0 11.3 0.00 0.00 0.00 98 1020.3
20260906125835 21 74 8.0 11.3 0.00 0.00 0.00 98 1020.3
20260906125333 21 53 4.8 9.7 0.00 0.00 0.00 98 1020.5
20260906124828 21 57 0.0 6.4 0.00 0.00 0.00 98 1020.3
20260906124324 21 48 0.0 4.8 0.00 0.00 0.00 98 1020.3
20260906123822 21 44 8.0 9.7 0.00 0.00 0.00 99 1020.2
20260906123318 21 38 1.6 4.8 0.00 0.00 0.00 99 1020.1
20260906122817 21 16 1.6 4.8 0.00 0.00 0.00 99 1020.0
20260906122313 21 71 3.2 4.8 0.00 0.00 0.00 99 1020.1
20260906121809 21 76 3.2 4.8 0.00 0.00 0.00 99 1019.7
20260906121305 21 44 3.2 4.8 0.00 0.00 0.00 99 1019.7
20260906120800 21 54 1.6 4.8 0.00 0.00 0.00 99 1019.7
20260906120257 21 54 0.0 4.8 0.00 0.00 0.00 99 1019.8
20260906115752 21 40 3.2 3.2 0.00 0.00 0.00 99 1019.8
20260906115247 21 26 3.2 4.8 0.00 0.00 0.00 99 1019.8
20260906114741 21 57 3.2 3.2 0.00 0.00 0.00 99 1019.7
20260906114237 21 37 0.0 4.8 0.00 0.00 0.00 99 1019.6
20260906113732 21 25 1.6 3.2 0.00 0.00 0.00 99 1019.2
20260906113231 21 26 3.2 3.2 0.00 0.00 0.00 99 1019.3
20260906112730 21 31 3.2 3.2 0.00 0.00 0.00 99 1019.0
20260906112228 21 342 0.0 1.6 0.00 0.00 0.00 99 1019.2
20260906111727 21 342 0.0 3.2 0.00 0.00 0.00 99 1019.2
20260906111221 21 14 3.2 3.2 0.00 0.00 0.00 99 1019.3
20260906110717 20 56 4.8 4.8 0.00 0.00 0.00 99 1019.1
20260906110212 20 60 3.2 4.8 0.00 0.00 0.00 99 1019.0
20260906105705 20 66 0.0 1.6 0.00 0.00 0.00 99 1019.0
20260906105201 20 293 1.6 3.2 0.00 0.00 0.00 99 1019.3
20260906104701 20 74 0.0 0.0 0.00 0.00 0.00 99 1019.0
20260906104200 20 74 0.0 0.0 0.00 0.00 0.00 99 1018.9
20260906103658 20 88 1.6 3.2 0.00 0.00 0.00 99 1018.6
20260906103154 20 87 1.6 1.6 0.00 0.00 0.00 99 1018.6
20260906102649 20 63 3.2 3.2 0.00 0.00 0.00 99 1018.9
20260906102148 20 59 0.0 1.6 0.00 0.00 0.00 99 1018.7
20260906101648 20 59 0.0 1.6 0.00 0.00 0.00 99 1018.7
20260906101143 20 52 3.2 3.2 0.00 0.00 0.00 99 1018.5
20260906100639 20 83 1.6 3.2 0.00 0.00 0.00 99 1018.7
20260906100133 20 58 4.8 6.4 0.00 0.00 0.00 99 1018.5
20260906095628 20 60 6.4 6.4 0.00 0.00 0.00 99 1018.6
20260906095124 20 74 4.8 4.8 0.00 0.00 0.00 99 1018.5
20260906094622 20 68 4.8 6.4 0.00 0.00 0.00 99 1018.4
20260906094119 21 76 4.8 11.3 0.00 0.00 0.00 98 1018.3
20260906093614 21 75 8.0 11.3 0.00 0.00 0.00 98 1018.2
20260906093109 21 54 6.4 9.7 0.00 0.00 0.00 98 1018.1
20260906092603 21 70 6.4 9.7 0.00 0.00 0.00 98 1018.1
20260906092059 21 70 8.0 9.7 0.00 0.00 0.00 98 1018.3
20260906091554 21 68 6.4 9.7 0.00 0.00 0.00 97 1018.3
20260906091051 21 94 6.4 11.3 0.00 0.00 0.00 97 1018.2
20260906090550 21 69 8.0 11.3 0.00 0.00 0.00 98 1018.2
20260906090045 21 70 8.0 11.3 0.00 0.00 0.00 98 1018.3
20260906085544 21 83 8.0 11.3 0.00 0.00 0.00 98 1018.3
20260906085044 21 76 9.7 12.9 0.00 0.00 0.00 98 1018.4
20260906084539 21 49 6.4 11.3 0.00 0.00 0.00 98 1018.3
20260906084037 21 64 8.0 9.7 0.00 0.00 0.00 98 1018.4
20260906083533 22 63 6.4 11.3 0.00 0.00 0.00 98 1018.2
20260906083033 22 58 9.7 14.5 0.00 0.00 0.00 98 1018.2
20260906082529 22 78 8.0 14.5 0.00 0.00 0.00 98 1018.3
20260906082025 22 69 8.0 12.9 0.00 0.00 0.00 98 1018.2
20260906081520 22 60 12.9 14.5 0.00 0.00 0.00 98 1018.1
20260906081016 22 44 8.0 12.9 0.00 0.00 0.00 98 1018.3
20260906080512 22 62 6.4 11.3 0.00 0.00 0.00 98 1018.4
20260906080008 22 70 8.0 9.7 0.00 0.00 0.00 98 1018.4
20260906075502 22 49 6.4 9.7 0.00 0.00 0.00 99 1018.4
20260906074956 22 56 8.0 11.3 0.00 0.00 0.00 99 1018.3
20260906074451 22 62 8.0 9.7 0.00 0.00 0.00 99 1018.3
20260906073949 22 52 4.8 6.4 0.00 0.00 0.00 99 1018.3
20260906073444 22 59 4.8 6.4 0.00 0.00 0.00 99 1018.2
20260906072941 22 74 4.8 6.4 0.00 0.00 0.00 99 1018.2
20260906072436 22 72 4.8 4.8 0.00 0.00 0.00 99 1018.3
20260906071932 22 50 4.8 4.8 0.00 0.00 0.00 99 1018.5
20260906071428 22 71 4.8 4.8 0.00 0.00 0.00 98 1018.5
20260906070924 22 92 4.8 6.4 0.00 0.00 0.00 98 1018.4
20260906070419 22 53 6.4 11.3 0.00 0.00 0.00 98 1018.2
20260906065915 22 59 6.4 9.7 0.00 0.00 0.00 98 1018.6
20260906065409 22 57 6.4 6.4 0.00 0.00 0.00 99 1018.5
20260906064904 22 56 4.8 9.7 0.00 0.00 0.00 99 1018.6
20260906064400 22 60 6.4 9.7 0.00 0.00 0.00 98 1018.7
20260906063855 22 58 6.4 9.7 0.00 0.00 0.00 99 1018.6
20260906063350 22 58 4.8 6.4 0.00 0.00 0.00 99 1018.7
20260906062845 22 54 4.8 6.4 0.00 0.00 0.00 99 1018.6
20260906062344 22 57 6.4 6.4 0.00 0.00 0.00 98 1018.7
20260906061839 22 55 6.4 6.4 0.00 0.00 0.00 99 1018.6
20260906061336 22 58 6.4 6.4 0.00 0.00 0.00 99 1018.5
20260906060830 22 57 4.8 4.8 0.00 0.00 0.00 98 1018.5
20260906060328 22 62 4.8 4.8 0.00 0.00 0.00 98 1018.7
20260906055823 22 27 1.6 3.2 0.00 0.00 0.00 98 1018.6
20260906055319 22 57 6.4 6.4 0.00 0.00 0.00 98 1018.4
20260906054814 22 54 6.4 6.4 0.00 0.00 0.00 98 1018.5
20260906054309 22 55 6.4 9.7 0.00 0.00 0.00 98 1018.5
20260906053806 22 51 6.4 6.4 0.00 0.00 0.00 98 1018.4
20260906053301 22 58 3.2 4.8 0.00 0.00 0.00 98 1018.5
20260906052755 22 51 1.6 3.2 0.00 0.00 0.00 98 1018.2
20260906052247 22 53 1.6 3.2 0.00 0.00 0.00 97 1018.3
20260906051744 23 60 3.2 4.8 0.00 0.00 0.00 97 1018.5
20260906051244 23 53 3.2 3.2 0.00 0.00 0.00 97 1018.6
20260906050739 23 53 3.2 4.8 0.00 0.00 0.00 97 1018.2
20260906050234 23 55 4.8 6.4 0.00 0.00 0.00 97 1018.2
20260906045732 23 43 3.2 4.8 0.00 0.00 0.00 97 1017.7
20260906045227 23 56 4.8 4.8 0.00 0.00 0.00 97 1017.8
20260906044722 23 60 3.2 6.4 0.00 0.00 0.00 97 1017.9
20260906044218 23 62 6.4 6.4 0.00 0.00 0.00 97 1017.6
20260906043714 23 62 6.4 6.4 0.00 0.00 0.00 97 1017.7
20260906043209 23 64 6.4 9.7 0.00 0.00 0.00 97 1017.6
20260906042709 23 66 6.4 11.3 0.00 0.00 0.00 96 1017.5
20260906042203 23 52 8.0 11.3 0.00 0.00 0.00 96 1017.7
20260906041659 23 60 8.0 12.9 0.00 0.00 0.00 96 1017.7
20260906041154 23 74 9.7 12.9 0.00 0.00 0.00 96 1017.5
20260906040649 24 62 8.0 12.9 0.00 0.00 0.00 96 1017.2
20260906040144 24 76 8.0 12.9 0.00 0.00 0.00 95 1017.5
20260906035639 24 60 8.0 11.3 0.00 0.00 0.00 95 1017.4
20260906035135 24 41 11.3 12.9 0.00 0.00 0.00 95 1017.4
20260906034629 24 46 9.7 11.3 0.00 0.00 0.00 95 1017.3
20260906034124 25 56 8.0 12.9 0.00 0.00 0.00 94 1017.4
20260906033620 25 55 9.7 14.5 0.00 0.00 0.00 94 1017.2
20260906033120 25 65 11.3 14.5 0.00 0.00 0.00 93 1017.0
20260906032617 25 64 12.9 16.1 0.00 0.00 0.00 93 1017.4
20260906032116 25 76 12.9 16.1 0.00 0.00 0.00 93 1017.1
20260906031612 25 63 11.3 17.7 0.00 0.00 0.00 93 1017.0
20260906031107 25 62 11.3 14.5 0.00 0.00 0.00 93 1017.3
20260906030606 25 53 12.9 16.1 0.00 0.00 0.00 93 1017.1
20260906025601 25 52 12.9 14.5 0.00 0.00 0.00 94 1016.9
20260906025059 26 56 9.7 14.5 0.00 0.00 0.00 93 1016.9
20260906024555 26 48 6.4 9.7 0.00 0.00 0.00 94 1017.0
20260906024049 26 50 9.7 12.9 0.00 0.00 0.00 93 1016.7
20260906023545 26 55 9.7 12.9 0.00 0.00 0.00 93 1017.1
20260906023040 26 60 8.0 9.7 0.00 0.00 0.00 93 1016.8
20260906022536 26 64 6.4 6.4 0.00 0.00 0.00 92 1016.7
20260906022031 26 7 6.4 11.3 0.00 0.00 0.00 92 1016.6
20260906021526 26 50 4.8 4.8 0.00 0.00 0.00 92 1016.5
20260906021020 27 58 11.3 14.5 0.00 0.00 0.00 91 1016.6
20260906020519 27 50 8.0 12.9 0.00 0.00 0.00 91 1016.1
20260906020019 27 57 8.0 11.3 0.00 0.00 0.00 91 1016.1
20260906015518 27 48 9.7 11.3 0.00 0.00 0.00 90 1016.2
20260906015012 27 50 6.4 12.9 0.00 0.00 0.00 90 1016.0
20260906014507 27 60 4.8 9.7 0.00 0.00 0.00 90 1016.1
20260906014003 27 62 6.4 9.7 0.00 0.00 0.00 90 1015.9
20260906013458 27 32 1.6 4.8 0.00 0.00 0.00 89 1015.9
20260906012948 27 35 3.2 6.4 0.00 0.00 0.00 90 1015.6
20260906012443 27 6 4.8 4.8 0.00 0.00 0.00 90 1015.7
20260906011942 27 37 1.6 3.2 0.00 0.00 0.00 90 1015.9
20260906011438 27 13 3.2 3.2 0.00 0.00 0.00 89 1015.8
20260906010933 28 28 3.2 3.2 0.00 0.00 0.00 89 1015.6
20260906010428 28 4 1.6 3.2 0.00 0.00 0.00 89 1015.6
20260906005925 28 12 3.2 4.8 0.00 0.00 0.00 89 1015.6
20260906005424 28 37 3.2 4.8 0.00 0.00 0.00 88 1015.6
20260906004922 28 35 4.8 4.8 0.00 0.00 0.00 89 1015.7
20260906004417 28 32 4.8 4.8 0.00 0.00 0.00 89 1015.7
20260906003913 28 38 3.2 3.2 0.00 0.00 0.00 88 1015.4
20260906003408 28 55 1.6 3.2 0.00 0.00 0.00 88 1015.6
20260906002903 28 22 3.2 3.2 0.00 0.00 0.00 88 1015.5
20260906002403 29 50 1.6 3.2 0.00 0.00 0.00 87 1015.6
20260906001858 29 38 1.6 4.8 0.00 0.00 0.00 86 1015.5
20260906001353 29 34 1.6 3.2 0.00 0.00 0.00 86 1015.5
20260906000848 29 11 0.0 1.6 0.00 0.00 0.00 86 1015.7
20260906000348 30 53 3.2 4.8 0.00 0.00 0.00 85 1015.6
20260905235843 30 59 0.0 3.2 0.00 0.00 0.00 85 1015.6
20260905235337 30 32 0.0 1.6 0.00 0.00 0.00 83 1015.6
20260905234833 30 50 0.0 3.2 0.00 0.00 0.00 83 1015.5
20260905234328 30 40 3.2 4.8 0.00 0.00 0.00 83 1015.5
20260905233823 31 53 4.8 6.4 0.00 0.00 0.00 81 1015.5
20260905233318 31 56 6.4 6.4 0.00 0.00 0.00 81 1015.3
20260905232817 31 62 1.6 6.4 0.00 0.00 0.00 81 1015.6
20260905232313 31 47 3.2 4.8 0.00 0.00 0.00 79 1015.4
20260905231809 31 26 3.2 4.8 0.00 0.00 0.00 79 1015.4
20260905231304 31 81 3.2 9.7 0.00 0.00 0.00 78 1015.2
20260905230800 31 62 4.8 9.7 0.00 0.00 0.00 76 1015.1
20260905230258 32 58 4.8 9.7 0.00 0.00 0.00 76 1015.1
20260905225758 32 88 6.4 12.9 0.00 0.00 0.00 76 1015.1
20260905225253 32 53 6.4 12.9 0.00 0.00 0.00 76 1015.2
20260905224752 32 51 8.0 11.3 0.00 0.00 0.00 75 1015.2
20260905224248 32 52 9.7 14.5 0.00 0.00 0.00 76 1015.1
20260905223743 32 68 8.0 14.5 0.00 0.00 0.00 74 1015.2
20260905223240 32 348 3.2 12.9 0.00 0.00 0.00 74 1015.2
20260905222736 32 27 3.2 12.9 0.00 0.00 0.00 72 1015.5
20260905222234 32 56 4.8 17.7 0.00 0.00 0.00 72 1015.4
20260905221731 32 4 6.4 12.9 0.00 0.00 0.00 71 1015.1
20260905221227 33 330 6.4 9.7 0.00 0.00 0.00 73 1015.2
20260905220723 33 36 6.4 14.5 0.00 0.00 0.00 69 1015.3
20260905220219 33 38 6.4 9.7 0.00 0.00 0.00 70 1015.2
20260905215718 33 92 4.8 11.3 0.00 0.00 0.00 70 1015.4
20260905215214 33 358 3.2 12.9 0.00 0.00 0.00 70 1015.3
20260905214710 33 343 6.4 11.3 0.00 0.00 0.00 69 1015.3
20260905214205 33 67 6.4 12.9 0.00 0.00 0.00 70 1015.4
20260905213700 33 345 6.4 14.5 0.00 0.00 0.00 68 1015.2
20260905213156 33 30 8.0 9.7 0.00 0.00 0.00 70 1015.3
20260905212651 33 43 14.5 17.7 0.00 0.00 0.00 68 1015.5
20260905212150 33 346 11.3 16.1 0.00 0.00 0.00 69 1015.5
20260905211645 33 38 6.4 9.7 0.00 0.00 0.00 69 1015.4
20260905211140 33 0 8.0 16.1 0.00 0.00 0.00 68 1015.4
20260905210636 33 76 6.4 17.7 0.00 0.00 0.00 68 1015.3
20260905210131 33 31 11.3 14.5 0.00 0.00 0.00 69 1015.4
20260905205625 33 32 11.3 17.7 0.00 0.00 0.00 69 1015.5
20260905205124 33 7 16.1 20.9 0.00 0.00 0.00 68 1015.5
20260905204618 33 38 6.4 14.5 0.00 0.00 0.00 69 1015.7
20260905204114 32 7 8.0 14.5 0.00 0.00 0.00 70 1015.6
20260905203614 32 337 8.0 12.9 0.00 0.00 0.00 74 1015.7
20260905203109 32 352 8.0 11.3 0.00 0.00 0.00 71 1015.6
20260905202604 33 354 11.3 12.9 0.00 0.00 0.00 69 1015.8
20260905202059 33 3 8.0 14.5 0.00 0.00 0.00 73 1015.9
20260905201555 32 48 6.4 11.3 0.00 0.00 0.00 73 1015.8
20260905201054 32 34 6.4 12.9 0.00 0.00 0.00 73 1015.5
20260905200550 32 355 9.7 14.5 0.00 0.00 0.00 72 1015.9
20260905200044 32 19 9.7 11.3 0.00 0.00 0.00 73 1015.6
20260905195538 33 33 11.3 14.5 0.00 0.00 0.00 72 1016.0
20260905195033 33 18 9.7 12.9 0.00 0.00 0.00 71 1016.2
20260905194527 33 41 4.8 12.9 0.00 0.00 0.00 71 1015.9
20260905194027 33 350 9.7 12.9 0.00 0.00 0.00 70 1016.0
20260905193522 33 2 6.4 9.7 0.00 0.00 0.00 65 1016.1
20260905193017 33 4 11.3 16.1 0.00 0.00 0.00 66 1016.1
20260905192512 33 13 8.0 16.1 0.00 0.00 0.00 66 1016.0
20260905192009 33 321 9.7 11.3 0.00 0.00 0.00 64 1016.0
20260905191507 34 296 1.6 9.7 0.00 0.00 0.00 62 1016.0
20260905191006 35 269 8.0 12.9 0.00 0.00 0.00 60 1015.9
20260905190504 34 18 9.7 12.9 0.00 0.00 0.00 62 1016.0
20260905190004 34 0 11.3 16.1 0.00 0.00 0.00 64 1015.8
20260905185459 34 312 6.4 11.3 0.00 0.00 0.00 63 1016.3
20260905184957 34 347 3.2 11.3 0.00 0.00 0.00 61 1016.2
20260905184452 34 13 9.7 14.5 0.00 0.00 0.00 64 1016.1
20260905183951 34 36 8.0 11.3 0.00 0.00 0.00 63 1016.0
20260905183451 34 18 8.0 12.9 0.00 0.00 0.00 62 1016.2
20260905182946 34 10 6.4 11.3 0.00 0.00 0.00 61 1016.4
20260905182445 33 0 4.8 16.1 0.00 0.00 0.00 64 1016.5
20260905181940 33 347 6.4 6.4 0.00 0.00 0.00 68 1016.2
20260905181435 34 352 6.4 11.3 0.00 0.00 0.00 63 1016.2
20260905180934 34 347 6.4 11.3 0.00 0.00 0.00 64 1016.5
20260905180429 33 32 3.2 9.7 0.00 0.00 0.00 65 1016.8
20260905175924 33 296 8.0 9.7 0.00 0.00 0.00 64 1016.6
20260905175424 33 349 4.8 9.7 0.00 0.00 0.00 69 1016.6
20260905174919 33 353 11.3 12.9 0.00 0.00 0.00 65 1016.6
20260905174415 33 32 8.0 11.3 0.00 0.00 0.00 67 1016.6
20260905173910 33 312 6.4 9.7 0.00 0.00 0.00 67 1016.6
20260905173406 33 331 6.4 9.7 0.00 0.00 0.00 68 1016.7
20260905172901 33 17 6.4 11.3 0.00 0.00 0.00 68 1016.8
20260905172359 33 41 6.4 12.9 0.00 0.00 0.00 69 1016.9
20260905171855 33 307 6.4 11.3 0.00 0.00 0.00 72 1017.0
20260905171351 33 346 8.0 11.3 0.00 0.00 0.00 70 1016.9
20260905170847 32 264 3.2 9.7 0.00 0.00 0.00 69 1016.9
20260905170338 32 265 8.0 12.9 0.00 0.00 0.00 70 1016.7
20260905165837 33 190 3.2 9.7 0.00 0.00 0.00 70 1016.8
20260905165333 32 305 9.7 11.3 0.00 0.00 0.00 70 1016.8
20260905164832 32 312 8.0 11.3 0.00 0.00 0.00 70 1016.7
20260905164328 32 306 9.7 11.3 0.00 0.00 0.00 69 1016.9
20260905163823 32 317 8.0 11.3 0.00 0.00 0.00 71 1016.9
20260905163319 32 289 8.0 12.9 0.00 0.00 0.00 68 1016.7
20260905162815 32 308 9.7 11.3 0.00 0.00 0.00 69 1017.0
20260905162314 32 291 9.7 11.3 0.00 0.00 0.00 71 1016.8
20260905161809 32 307 9.7 12.9 0.00 0.00 0.00 69 1016.8
20260905161309 33 301 8.0 9.7 0.00 0.00 0.00 68 1016.9
20260905160807 32 323 4.8 11.3 0.00 0.00 0.00 71 1016.7
20260905160301 32 323 8.0 14.5 0.00 0.00 0.00 71 1016.7
20260905155756 32 296 9.7 12.9 0.00 0.00 0.00 71 1016.7
20260905155255 32 251 9.7 12.9 0.00 0.00 0.00 71 1016.9
20260905154749 32 303 8.0 12.9 0.00 0.00 0.00 73 1016.9
20260905154245 32 312 6.4 9.7 0.00 0.00 0.00 73 1016.8
20260905153740 31 289 9.7 11.3 0.00 0.00 0.00 74 1016.6
20260905153236 31 324 9.7 14.5 0.00 0.00 0.00 75 1016.7
20260905152730 31 325 4.8 12.9 0.00 0.00 0.00 74 1016.6
20260905152225 31 309 9.7 12.9 0.00 0.00 0.00 73 1016.5
20260905151724 31 298 14.5 16.1 0.00 0.00 0.00 73 1016.8
20260905151221 31 284 6.4 12.9 0.00 0.00 0.00 74 1016.5
20260905150715 31 316 8.0 11.3 0.00 0.00 0.00 74 1016.5
20260905150215 31 290 6.4 9.7 0.00 0.00 0.00 75 1016.4
20260905145712 31 251 8.0 9.7 0.00 0.00 0.00 76 1016.4
20260905145208 31 247 8.0 11.3 0.00 0.00 0.00 75 1016.6
20260905144706 30 294 6.4 9.7 0.00 0.00 0.00 77 1016.4
20260905144206 30 267 9.7 11.3 0.00 0.00 0.00 76 1016.5
20260905143705 30 320 8.0 12.9 0.00 0.00 0.00 77 1016.4
20260905143200 30 300 8.0 9.7 0.00 0.00 0.00 76 1016.5
20260905142659 30 313 9.7 12.9 0.00 0.00 0.00 74 1016.3
20260905142153 30 275 6.4 9.7 0.00 0.00 0.00 74 1016.3
20260905141648 30 277 3.2 9.7 0.00 0.00 0.00 76 1016.4
20260905141144 30 287 8.0 9.7 0.00 0.00 0.00 75 1016.2